Regional Weather Roundup
Issued by NWS

Home | Current Version | Previous Version | Text Only | Print | Product List | Glossary Off
Versions: 1 2 3 4 5 6 7 8 9 10 11 12 13 14 15 16 17 18 19 20 21 22 23 24 25 26 27 28 29 30 31 32 33 34 35 36 37 38 39 40 41 42 43 44 45 46 47 48 49 50

000
ASUS43 KOAX 261410
RWRNE

WEATHER ROUNDUP FOR NEBRASKA
NATIONAL WEATHER SERVICE OMAHA NE
800 AM CST WED NOV 26 2014

NOTES: SATELLITE DATA IS BEING USED TO AUGMENT CLOUD COVER ABOVE
       12000 FEET.
       "FAIR" INDICATES FEW OR NO CLOUDS BELOW 12,000 FEET WITH NO
       SIGNIFICANT WEATHER AND/OR OBSTRUCTIONS TO VISIBILITY.

  * THESE STATIONS DO NOT REPORT WEATHER SUCH AS RAIN...SNOW OR FOG.

NEZ001>004-019>022-054>056-261500-
NEBRASKA PANHANDLE

CITY           SKY/WX    TMP DP  RH WIND       PRES   REMARKS
SCOTTSBLUFF    LGT SNOW  29  25  85 NW8       30.20R FOG     WCI  21
ALLIANCE       CLOUDY    25  21  85 N9        30.19R WCI  15
CHADRON        CLOUDY    32  20  61 NE3       30.23R
KIMBALL        FLURRIES  26  25  95 NW9       30.16R WCI  17
SIDNEY         LGT SNOW  28  24  85 NW9G22    30.19R VSB 1   WCI  19
$$

NEZ057>060-069>072-079>082-261500-
SOUTHWEST NEBRASKA

CITY           SKY/WX    TMP DP  RH WIND       PRES   REMARKS
NORTH PLATTE   CLOUDY    27  19  72 NW14      30.18R WCI  16
IMPERIAL       CLOUDY    31  18  58 NW18      30.19R WCI  19
LEXINGTON      CLOUDY    30  21  68 NW22G30   30.14R WCI  17
MCCOOK         CLOUDY    33  20  58 NW22G31   30.17R WCI  21
OGALLALA       CLOUDY    29  22  74 N15G22    30.20R WCI  18
$$

NEZ005>010-023>029-035>040-094-261500-
NORTH CENTRAL NEBRASKA

CITY           SKY/WX    TMP DP  RH WIND       PRES   REMARKS
VALENTINE      CLOUDY    22  17  81 N16G23    30.21R WCI   8
AINSWORTH      CLOUDY    21  18  88 N21G28    30.18R WCI   5
BROKEN BOW     CLOUDY    28  20  71 N33G40    30.11R WCI  11
O`NEILL        CLOUDY    23  21  91 N26G35    30.14R WCI   7
ORD            CLOUDY    25  20  81 NW25G36   30.11R WCI   9
THEDFORD       CLOUDY    27  21  80 N16G26    30.18R WCI  14
$$

NEZ041-046>049-061>064-073>077-083>087-261500-
SOUTH CENTRAL NEBRASKA

CITY           SKY/WX    TMP DP  RH WIND       PRES   REMARKS
GRAND ISLAND   CLOUDY    29  22  75 NW30G38   30.08R WCI  13
AURORA         CLOUDY    31  24  77 NW29G36   30.06R WCI  16
HASTINGS       CLOUDY    32  23  69 NW31G41   30.07R WCI  17
HEBRON         CLOUDY    37  23  56 NW23G35   30.04R WCI  26
HOLDREGE       CLOUDY    32  20  62 NW17G35   30.11R WCI  21
KEARNEY *      CLOUDY    30  19  64 NW21G26   30.11R WCI  17
YORK           CLOUDY    32  27  80 NW29G36   30.03R WCI  18
$$

NEZ011>018-030>034-042>045-261500-
NORTHEAST NEBRASKA

CITY           SKY/WX    TMP DP  RH WIND       PRES   REMARKS
NORFOLK        CLOUDY    28  25  88 NW26G36   30.01R WCI  13
ALBION         CLOUDY    27  21  80 NW29G38   30.05R WCI  11
BLAIR          CLOUDY    37  32  81 NW21G29   29.90R WCI  27
COLUMBUS *     CLOUDY    32  25  74 NW24G35   30.01R WCI  19
FREMONT        CLOUDY    37  32  84 NW24      29.96R WCI  25
TEKAMAH        CLOUDY    37  33  85 NW21G29   29.92R WCI  26
WAYNE          CLOUDY    33  31  94 N31G38    29.98R WCI  19
$$

NEZ050>053-065>068-078-088>093-261500-
SOUTHEAST NEBRASKA

CITY           SKY/WX    TMP DP  RH WIND       PRES   REMARKS
LINCOLN        MOCLDY    36  26  67 NW22G36   29.99R WCI  25
OMAHA EPPLEY   LGT RAIN  37  33  85 NW24G32   29.91R WCI  26
BEATRICE       CLOUDY    37  29  75 NW21      29.99R WCI  26
FALLS CITY     CLOUDY    38  31  76 W20       29.93R WCI  28
NEBRASKA CITY  DRIZZLE   37  31  80 NW22G32   29.92R WCI  26
PLATTSMOUTH    CLOUDY    37  32  82 NW21G30   29.90R WCI  26
$$

NEZ044-045-051>053-067-261500-
OMAHA AREA

CITY           SKY/WX    TMP DP  RH WIND       PRES   REMARKS
OMAHA EPPLEY   LGT RAIN  37  33  85 NW24G32   29.91R WCI  26
BLAIR          CLOUDY    37  32  81 NW21G29   29.90R WCI  27
FREMONT        CLOUDY    37  32  84 NW24      29.96R WCI  25
MILLARD        CLOUDY    38  32  79 NW20G25   29.92R WCI  28
OFFUTT AFB     LGT RAIN  37  32  81 NW16G32   29.90R WCI  28
PLATTSMOUTH    CLOUDY    37  32  82 NW21G30   29.90R WCI  26
WAHOO          CLOUDY    36  30  78 NW21G30   29.95R WCI  25
$$


USA.gov is the U.S. government's official web portal to all federal, state and local government web resources and services.